Location: Brabourne
(51.1333°N, 1.0000°E)
Time: 08:44:07
(UTC+00:00)

ADEOS Rocket - Pass Details

Date: 20 June 2021
Orbit: 858 x 1307 km, 98.7° (Epoch: 31 July)

Event Time Altitude Azimuth Distance (km) Brightness Sun altitude
Exits shadow 02:32:25 - 178° (S) 4,153 5.8 -8.0°
Reaches altitude 10° 02:35:11 10° 182° (S) 3,160 5.2 -7.8°
Maximum altitude 02:42:16 55° 260° (W) 1,339 3.5 -7.1°
Drops below altitude 10° 02:48:42 10° 338° (NNW) 2,874 5.9 -6.5°
Sets 02:51:10 0° 343° (NNW) 3,769 6.6 -6.2°
